Sexton Summit, OR

9:46 AM PDT on October 14, 2019 (GMT -0700)
Sexton Summit

Weather History for KSXT - August, 2019

Change the Weather History Date:

Sunday, August 25, 2019

  Actual Average Record
Temperature  
Mean Temperature 64 °F -  
Max Temperature 75 °F 72 °F 93 °F (2010)
Min Temperature 53 °F 51 °F 45 °F (2008)
Degree Days  
Heating Degree Days 1    
Growing Degree Days 14 (Base 50)    
Moisture  
Dew Point 51 °F    
Average Humidity 75    
Maximum Humidity 100    
Minimum Humidity 44    
Precipitation  
Precipitation 0.00 in - - ()
Sea Level Pressure  
Sea Level Pressure 30.07 in    
Wind  
Wind Speed 6 mph (North)    
Max Wind Speed 14 mph    
Max Gust Speed 17 mph    
Visibility 7 miles    
Events Fog , Rain    
Averages and records for this station are not official NWS values.
T = Trace of Precipitation, MM = Missing Value Source: NWS Daily Summary

Daily Weather History Graph

Daily Weather History Graph

Search for Another Location

Airport or City:

Astronomy

Aug. 25, 2019 Rise Set
Actual Time 6:30 AM PDT 7:59 PM PDT
Civil Twilight 6:01 AM PDT 8:29 PM PDT
Nautical Twilight 5:25 AM PDT 9:04 PM PDT
Astronomical Twilight 4:47 AM PDT 9:42 PM PDT
Moon 1:05 AM PDT (8/25) 4:31 PM PDT (8/25)
Length of Visible Light 14h 27m
Length of Day
13h 28m
Waning Crescent, 28% of the Moon is Illuminated
Aug 25
Waning Crescent
Aug 30
New
Sep 5
First Quarter
Sep 13
Full
Sep 21
Last Quarter

Hourly Weather History & Observations

Time (PDT) Temp. Dew Point Humidity Pressure Visibility Wind Dir Wind Speed Gust Speed Precip Events Conditions
12:56 AM 57.0 °F 51.1 °F 81% 29.97 in 10.0 mi NNW 9.2 mph - N/A   Clear
1:56 AM 57.0 °F 51.1 °F 81% 29.96 in 10.0 mi NNW 6.9 mph - N/A   Clear
2:56 AM 55.0 °F 52.0 °F 89% 29.96 in 10.0 mi North 5.8 mph - N/A   Clear
3:56 AM 55.9 °F 51.1 °F 84% 29.97 in 10.0 mi North 6.9 mph - N/A   Clear
4:56 AM 54.0 °F 53.1 °F 97% 29.98 in 10.0 mi NNW 9.2 mph - N/A   Clear
5:13 AM 54.0 °F 53.1 °F 97% 30.12 in 1.0 mi NNW 9.2 mph - N/A   Mist
5:21 AM 53.1 °F 53.1 °F 100% 30.12 in 0.5 mi NNW 9.2 mph - N/A Fog Fog
5:56 AM 53.1 °F 53.1 °F 100% 30.01 in 0.2 mi NNW 9.2 mph - 0.00 in Fog , Rain Light Rain
6:33 AM 53.1 °F 52.0 °F 96% 30.14 in 0.2 mi NNW 8.1 mph - 0.00 in Fog , Rain Light Rain
6:56 AM 54.0 °F 51.1 °F 90% 30.03 in 6.0 mi North 3.5 mph - 0.00 in   Mostly Cloudy
7:04 AM 55.0 °F 50.0 °F 83% 30.15 in 10.0 mi Calm Calm - N/A   Scattered Clouds
7:38 AM 57.0 °F 53.1 °F 87% 30.16 in 0.2 mi Calm Calm - 0.00 in Fog , Rain Light Rain
7:44 AM 60.1 °F 53.1 °F 78% 30.16 in 6.0 mi Calm Calm - 0.00 in   Haze
7:56 AM 61.0 °F 52.0 °F 72% 30.04 in 10.0 mi Calm Calm - 0.00 in   Partly Cloudy
8:21 AM 55.0 °F 52.0 °F 89% 30.16 in 0.8 mi North 4.6 mph - N/A   Mist
8:29 AM 57.9 °F 53.1 °F 84% 30.16 in 0.2 mi Calm Calm - N/A   Haze
8:35 AM 57.0 °F 53.1 °F 87% 30.17 in 4.0 mi Calm Calm - N/A   Partly Cloudy
8:42 AM 54.0 °F 53.1 °F 97% 30.17 in 0.8 mi NNE 3.5 mph - N/A   Mist
8:49 AM 54.0 °F 53.1 °F 97% 30.17 in 0.5 mi Calm Calm - N/A Fog Fog
8:56 AM 60.1 °F 54.0 °F 80% 30.06 in 2.5 mi Calm Calm - N/A   Haze
9:03 AM 61.0 °F 54.0 °F 78% 30.17 in 10.0 mi Variable 3.5 mph - N/A   Partly Cloudy
9:56 AM 64.9 °F 54.0 °F 68% 30.05 in 10.0 mi East 3.5 mph - N/A   Clear
10:56 AM 68.0 °F 55.9 °F 65% 30.06 in 10.0 mi East 4.6 mph - N/A   Clear
11:56 AM 69.1 °F 55.9 °F 63% 30.06 in 10.0 mi Calm Calm - N/A   Clear
12:56 PM 70.0 °F 55.9 °F 61% 30.07 in 10.0 mi Variable 4.6 mph - N/A   Clear
1:56 PM 73.9 °F 55.9 °F 53% 30.05 in 10.0 mi North 3.5 mph - N/A   Clear
2:56 PM 75.0 °F 54.0 °F 48% 30.05 in 10.0 mi Variable 3.5 mph - N/A   Clear
4:56 PM 73.0 °F 50.0 °F 44% 30.04 in 10.0 mi Variable 4.6 mph - N/A   Clear
5:56 PM 70.0 °F 50.0 °F 49% 30.05 in 10.0 mi Variable 6.9 mph - N/A   Clear
6:56 PM 66.9 °F 48.0 °F 51% 30.06 in 10.0 mi Variable 6.9 mph - N/A   Clear
7:56 PM 64.0 °F 43.0 °F 46% 30.04 in 10.0 mi NNW 9.2 mph 17.3 mph N/A   Clear
8:56 PM 62.1 °F 43.0 °F 50% 30.07 in 10.0 mi North 12.7 mph - N/A   Clear
9:56 PM 61.0 °F 44.1 °F 54% 30.06 in 10.0 mi North 13.8 mph - N/A   Clear
10:56 PM 61.0 °F 45.0 °F 56% 30.05 in 10.0 mi North 11.5 mph - N/A   Clear
11:56 PM 61.0 °F 46.0 °F 58% 30.05 in 10.0 mi NNE 11.5 mph - N/A   Clear